Stanton, MN

5:36 AM CST on December 10, 2019 (GMT -0600)
Stanton

Weather History for KSYN - October, 2019

Change the Weather History Date:

Saturday, October 26, 2019

  Actual Average (KLVN) Record (KLVN)
Temperature  
Mean Temperature 42 °F -  
Max Temperature 54 °F 57 °F 84 °F (1955)
Min Temperature 29 °F 35 °F 19 °F (1981)
Degree Days  
Heating Degree Days 24    
Moisture  
Dew Point 28 °F    
Average Humidity 59    
Maximum Humidity 91    
Minimum Humidity 30    
Precipitation  
Precipitation 0.00 in - - ()
Sea Level Pressure  
Sea Level Pressure 29.84 in    
Wind  
Wind Speed 8 mph ()    
Max Wind Speed 17 mph    
Max Gust Speed 24 mph    
Visibility 10.0 miles    
Events      
Averages and records for this station are not official NWS values.
T = Trace of Precipitation, MM = Missing Value Source: Averaged Metar Reports

Daily Weather History Graph

Daily Weather History Graph

Search for Another Location

Airport or City:

Astronomy

Oct. 26, 2019 Rise Set
Actual Time 7:41 AM CDT 6:10 PM CDT
Civil Twilight 7:11 AM CDT 6:40 PM CDT
Nautical Twilight 6:37 AM CDT 7:14 PM CDT
Astronomical Twilight 6:03 AM CDT 7:47 PM CDT
Moon 5:29 AM CDT (10/26) 5:52 PM CDT (10/26)
Length of Visible Light 11h 28m
Length of Day
10h 28m
Waning Crescent, 3% of the Moon is Illuminated
Oct 26
Waning Crescent
Oct 27
New
Nov 4
First Quarter
Nov 12
Full
Nov 19
Last Quarter

Hourly Weather History & Observations

Time (CDT) Temp. Windchill Dew Point Humidity Pressure Visibility Wind Dir Wind Speed Gust Speed Precip Events Conditions
12:15 AM 41.0 °F 35.2 °F 31.1 °F 68% 30.04 in 10.0 mi South 9.2 mph - N/A   Clear
12:16 AM 41.0 °F 35.2 °F 31.1 °F 68% 30.04 in 10.0 mi South 9.2 mph - N/A   Clear
12:35 AM 40.6 °F 36.0 °F 31.1 °F 69% 30.03 in 10.0 mi SSW 6.9 mph - N/A   Clear
12:55 AM 40.3 °F 34.9 °F 31.1 °F 70% 30.02 in 10.0 mi SSW 8.1 mph - N/A   Clear
1:15 AM 41.0 °F 34.7 °F 30.6 °F 66% 30.01 in 10.0 mi South 10.4 mph 16.1 mph N/A   Clear
1:35 AM 40.5 °F 33.6 °F 30.6 °F 68% 30.01 in 10.0 mi South 11.5 mph - N/A   Clear
1:55 AM 40.3 °F 33.4 °F 30.2 °F 67% 30.01 in 10.0 mi South 11.5 mph - N/A   Clear
1:56 AM 40.3 °F 33.4 °F 30.2 °F 67% 30.01 in 10.0 mi South 11.5 mph - N/A   Clear
2:16 AM 40.1 °F 33.2 °F 30.2 °F 68% 30.00 in 10.0 mi South 11.5 mph - N/A   Clear
2:35 AM 39.2 °F 31.6 °F 30.2 °F 70% 30.00 in 10.0 mi South 12.7 mph - N/A   Clear
3:15 AM 39.2 °F 32.0 °F 30.2 °F 70% 29.98 in 10.0 mi South 11.5 mph 17.3 mph N/A   Clear
3:16 AM 39.2 °F 32.5 °F 30.2 °F 70% 29.99 in 10.0 mi South 10.4 mph 17.3 mph N/A   Clear
3:35 AM 39.2 °F 32.0 °F 30.2 °F 70% 29.98 in 10.0 mi South 11.5 mph - N/A   Clear
3:36 AM 39.2 °F 32.0 °F 30.2 °F 70% 29.98 in 10.0 mi South 11.5 mph - N/A   Clear
3:55 AM 38.8 °F 31.6 °F 30.2 °F 71% 29.98 in 10.0 mi South 11.5 mph - N/A   Clear
4:15 AM 39.2 °F 33.6 °F 30.0 °F 70% 29.97 in 10.0 mi South 8.1 mph - N/A   Clear
4:35 AM 38.5 °F 31.6 °F 29.8 °F 71% 29.96 in 10.0 mi South 10.4 mph - N/A   Clear
4:55 AM 38.5 °F 32.7 °F 29.7 °F 71% 29.96 in 10.0 mi South 8.1 mph - N/A   Clear
5:15 AM 37.9 °F 32.7 °F 29.5 °F 72% 29.95 in 10.0 mi South 6.9 mph - N/A   Clear
5:35 AM 36.7 °F 30.5 °F 29.3 °F 75% 29.95 in 10.0 mi South 8.1 mph - N/A   Clear
5:55 AM 36.5 °F 29.7 °F 29.3 °F 75% 29.95 in 10.0 mi South 9.2 mph - N/A   Clear
6:15 AM 36.5 °F 31.8 °F 29.1 °F 75% 29.94 in 10.0 mi South 5.8 mph - N/A   Clear
6:35 AM 36.5 °F 31.0 °F 29.1 °F 75% 29.94 in 10.0 mi South 6.9 mph - N/A   Clear
6:36 AM 36.5 °F 31.8 °F 29.1 °F 75% 29.94 in 10.0 mi South 5.8 mph - N/A   Clear
6:55 AM 36.3 °F 30.1 °F 28.9 °F 75% 29.93 in 10.0 mi South 8.1 mph - N/A   Clear
7:15 AM 36.0 °F 30.3 °F 28.8 °F 75% 29.92 in 10.0 mi South 6.9 mph - N/A   Clear
7:35 AM 36.1 °F 29.9 °F 27.9 °F 72% 29.92 in 10.0 mi South 8.1 mph - N/A   Clear
7:55 AM 35.8 °F 28.8 °F 27.5 °F 72% 29.91 in 10.0 mi South 9.2 mph - N/A   Clear
8:15 AM 36.5 °F 30.3 °F 27.9 °F 71% 29.91 in 10.0 mi South 8.1 mph - N/A   Clear
8:16 AM 36.5 °F 30.3 °F 27.9 °F 71% 29.91 in 10.0 mi South 8.1 mph - N/A   Clear
8:35 AM 37.9 °F 30.9 °F 28.2 °F 68% 29.90 in 10.0 mi South 10.4 mph - N/A   Clear
8:55 AM 39.4 °F 33.2 °F 28.6 °F 65% 29.91 in 10.0 mi South 9.2 mph - N/A   Clear
8:56 AM 39.4 °F 33.2 °F 28.4 °F 65% 29.91 in 10.0 mi South 9.2 mph - N/A   Clear
9:15 AM 41.0 °F 36.4 °F 29.1 °F 63% 29.91 in 10.0 mi South 6.9 mph - N/A   Clear
9:16 AM 41.0 °F 36.4 °F 29.1 °F 63% 29.91 in 10.0 mi South 6.9 mph - N/A   Clear
9:35 AM 42.4 °F 37.0 °F 29.7 °F 61% 29.90 in 10.0 mi South 9.2 mph - N/A   Clear
9:56 AM 44.1 °F 38.6 °F 29.8 °F 57% 29.89 in 10.0 mi South 10.4 mph - N/A   Clear
10:15 AM 45.5 °F 39.2 °F 30.0 °F 55% 29.89 in 10.0 mi South 13.8 mph - N/A   Clear
10:35 AM 46.4 °F 40.7 °F 29.3 °F 51% 29.88 in 10.0 mi South 12.7 mph - N/A   Clear
10:55 AM 47.7 °F - 29.7 °F 50% 29.86 in 10.0 mi South 11.5 mph 19.6 mph N/A   Clear
10:56 AM 47.8 °F - 29.5 °F 49% 29.86 in 10.0 mi South 11.5 mph 19.6 mph N/A   Clear
11:15 AM 48.9 °F - 29.1 °F 46% 29.85 in 10.0 mi South 12.7 mph 21.9 mph N/A   Clear
11:16 AM 48.9 °F - 29.3 °F 47% 29.85 in 10.0 mi South 12.7 mph 18.4 mph N/A   Clear
11:35 AM 50.0 °F - 29.8 °F 46% 29.85 in 10.0 mi South 15.0 mph 21.9 mph N/A   Clear
11:36 AM 50.0 °F - 29.7 °F 46% 29.85 in 10.0 mi South 16.1 mph 21.9 mph N/A   Clear
11:55 AM 50.7 °F - 30.0 °F 45% 29.85 in 10.0 mi South 11.5 mph 18.4 mph N/A   Clear
12:15 PM 51.3 °F - 29.7 °F 44% 29.84 in 10.0 mi South 13.8 mph - N/A   Clear
12:16 PM 51.4 °F - 29.7 °F 43% 29.84 in 10.0 mi SSE 15.0 mph - N/A   Clear
12:35 PM 51.6 °F - 28.4 °F 41% 29.83 in 10.0 mi South 13.8 mph 24.2 mph N/A   Clear
12:55 PM 52.0 °F - 27.9 °F 39% 29.83 in 10.0 mi SSE 13.8 mph 23.0 mph N/A   Clear
12:56 PM 51.8 °F - 28.0 °F 40% 29.83 in 10.0 mi SSE 13.8 mph 23.0 mph N/A   Clear
1:15 PM 52.7 °F - 28.9 °F 40% 29.83 in 10.0 mi SSE 15.0 mph 21.9 mph N/A   Clear
1:16 PM 52.7 °F - 28.8 °F 40% 29.83 in 10.0 mi SSE 17.3 mph 21.9 mph N/A   Clear
1:35 PM 52.9 °F - 27.7 °F 38% 29.81 in 10.0 mi South 15.0 mph - N/A   Clear
1:55 PM 52.7 °F - 27.9 °F 38% 29.79 in 10.0 mi SSE 13.8 mph 19.6 mph N/A   Clear
2:15 PM 53.6 °F - 26.8 °F 36% 29.79 in 10.0 mi South 17.3 mph 23.0 mph N/A   Clear
2:35 PM 54.3 °F - 27.3 °F 35% 29.78 in 10.0 mi South 12.7 mph - N/A   Clear
2:36 PM 54.5 °F - 27.1 °F 35% 29.78 in 10.0 mi South 12.7 mph 18.4 mph N/A   Clear
2:55 PM 53.8 °F - 25.0 °F 33% 29.76 in 10.0 mi SSE 12.7 mph 18.4 mph N/A   Clear
3:15 PM 53.4 °F - 23.9 °F 32% 29.75 in 10.0 mi South 11.5 mph 17.3 mph N/A   Clear
3:35 PM 54.5 °F - 26.1 °F 33% 29.74 in 10.0 mi SSE 10.4 mph - N/A   Clear
3:36 PM 54.3 °F - 25.7 °F 33% 29.74 in 10.0 mi SSE 11.5 mph - N/A   Clear
3:55 PM 53.4 °F - 24.1 °F 32% 29.74 in 10.0 mi SSE 9.2 mph - N/A   Clear
4:15 PM 53.8 °F - 23.4 °F 31% 29.73 in 10.0 mi SSE 11.5 mph 18.4 mph N/A   Clear
4:35 PM 53.4 °F - 22.5 °F 30% 29.73 in 10.0 mi SSE 10.4 mph 17.3 mph N/A   Clear
4:55 PM 52.0 °F - 21.4 °F 30% 29.72 in 10.0 mi SSE 9.2 mph - N/A   Clear
5:15 PM 50.9 °F - 26.2 °F 38% 29.72 in 10.0 mi SE 5.8 mph - N/A   Clear
5:16 PM 50.9 °F - 26.2 °F 38% 29.72 in 10.0 mi SE 5.8 mph - N/A   Clear
5:35 PM 50.9 °F - 25.0 °F 36% 29.73 in 10.0 mi SSE 3.5 mph - N/A   Clear
5:55 PM 49.6 °F - 25.2 °F 38% 29.73 in 10.0 mi SE 3.5 mph - N/A   Clear
6:15 PM 48.2 °F - 25.2 °F 41% 29.73 in 10.0 mi SE 4.6 mph - N/A   Clear
6:35 PM 46.6 °F - 24.8 °F 43% 29.72 in 10.0 mi ESE 3.5 mph - N/A   Clear
6:55 PM 45.9 °F 43.6 °F 24.8 °F 44% 29.71 in 10.0 mi SE 4.6 mph - N/A   Clear
6:56 PM 45.7 °F 43.4 °F 24.8 °F 44% 29.71 in 10.0 mi ESE 4.6 mph - N/A   Clear
7:15 PM 44.1 °F - 25.2 °F 47% 29.71 in 10.0 mi Calm Calm - N/A   Clear
7:35 PM 40.6 °F 37.5 °F 27.1 °F 59% 29.71 in 10.0 mi ESE 4.6 mph - N/A   Clear
7:36 PM 40.8 °F 37.8 °F 27.3 °F 59% 29.71 in 10.0 mi ESE 4.6 mph - N/A   Clear
8:15 PM 40.6 °F - 26.6 °F 57% 29.71 in 10.0 mi Calm Calm - N/A   Clear
8:16 PM 40.3 °F - 26.6 °F 58% 29.71 in 10.0 mi Calm Calm - N/A   Clear
8:35 PM 38.5 °F - 27.5 °F 65% 29.70 in 10.0 mi Calm Calm - N/A   Clear
8:55 PM 36.7 °F - 28.0 °F 71% 29.70 in 10.0 mi Calm Calm - N/A   Clear
9:15 PM 31.6 °F 28.3 °F 27.0 °F 83% 29.71 in 10.0 mi WNW 3.5 mph - N/A   Clear
9:35 PM 32.9 °F - 28.2 °F 83% 29.71 in 10.0 mi Calm Calm - N/A   Clear
9:55 PM 32.9 °F - 28.0 °F 82% 29.71 in 10.0 mi Calm Calm - N/A   Clear
10:15 PM 33.4 °F - 28.0 °F 81% 29.70 in 10.0 mi Calm Calm - N/A   Clear
10:35 PM 31.1 °F - 27.7 °F 87% 29.70 in 10.0 mi Calm Calm - N/A   Clear
10:36 PM 31.1 °F - 27.9 °F 88% 29.70 in 10.0 mi Calm Calm - N/A   Clear
10:55 PM 30.9 °F - 27.7 °F 88% 29.71 in 10.0 mi Calm Calm - N/A   Clear
10:56 PM 30.9 °F - 27.5 °F 87% 29.71 in 10.0 mi Calm Calm - N/A   Clear
11:15 PM 29.8 °F - 26.8 °F 88% 29.70 in 10.0 mi Calm Calm - N/A   Clear
11:35 PM 29.7 °F - 26.8 °F 89% 29.71 in 10.0 mi Calm Calm - N/A   Clear
11:55 PM 29.7 °F - 27.3 °F 91% 29.71 in 10.0 mi Calm Calm - N/A   Clear
11:56 PM 29.8 °F - 27.3 °F 90% 29.71 in 10.0 mi Calm Calm - N/A   Clear